When you browse on this site, cookies collect data to enhance your experience and personalize the content and advertising you see.
Visit our Privacy Policy to learn more. By continuing to use the site, you agree to this use of cookies and data.
  • In Latvia
  • List of Countries
  • For 7 days
  • Water Temperature
  • Weather Map
  • Weather Widgets
  • user-avatar
    Login

    Hourly Weather Prutz

    Today, 28 January, Tuesday

    Time Temperature Precipitation Wind Pressure Humidity
    00:00 -5°C° 0 mm 3 mps 625 mmHg 83%
    01:00 -4°C° 0 mm 3 mps 625 mmHg 84%
    02:00 -4°C° 0.1 mm 3 mps 625 mmHg 84%
    03:00 -4°C° 0.1 mm 4 mps 624 mmHg 83%
    04:00 -5°C° 0.1 mm 4 mps 624 mmHg 83%
    05:00 -5°C° 0.2 mm 3 mps 623 mmHg 85%
    06:00 -5°C° 0.2 mm 3 mps 623 mmHg 86%
    07:00 -4°C° 0 mm 3 mps 623 mmHg 93%
    08:00 -4°C° 0.1 mm 3 mps 623 mmHg 90%
    09:00 -2°C° 0.1 mm 3 mps 623 mmHg 88%
    10:00 -2°C° 0.1 mm 3 mps 622 mmHg 86%
    11:00 -1°C° 0.5 mm 3 mps 622 mmHg 84%
    12:00 0°C° 0.5 mm 3 mps 622 mmHg 83%
    13:00 0°C° 0.5 mm 3 mps 622 mmHg 81%
    14:00 -1°C° 1.7 mm 3 mps 622 mmHg 85%
    15:00 -2°C° 1.7 mm 2 mps 621 mmHg 88%
    16:00 -3°C° 1.7 mm 2 mps 621 mmHg 92%
    17:00 -4°C° 0.9 mm 2 mps 621 mmHg 92%
    18:00 -5°C° 0.9 mm 2 mps 622 mmHg 91%
    19:00 -6°C° 0.9 mm 2 mps 622 mmHg 91%
    20:00 -4°C° 1 mm 1 mps 622 mmHg 92%
    21:00 -4°C° 1 mm 1 mps 622 mmHg 92%
    22:00 -6°C° 1 mm 1 mps 622 mmHg 93%
    23:00 -6°C° 0.3 mm 1 mps 622 mmHg 92%

    Tomorrow, 29 January, Wednesday

    Time Temperature Precipitation Wind Pressure Humidity
    00:00 -7°C° 0.3 mm 2 mps 622 mmHg 92%
    01:00 -7°C° 0.3 mm 2 mps 623 mmHg 91%
    02:00 -7°C° 0.7 mm 2 mps 622 mmHg 91%
    03:00 -7°C° 0.7 mm 2 mps 622 mmHg 91%
    04:00 -7°C° 0.7 mm 2 mps 622 mmHg 91%
    05:00 -7°C° 1 mm 2 mps 623 mmHg 92%
    06:00 -7°C° 1 mm 2 mps 624 mmHg 93%
    07:00 -6°C° 1 mm 2 mps 624 mmHg 94%
    08:00 -6°C° 0.7 mm 2 mps 625 mmHg 91%
    09:00 -6°C° 0.7 mm 2 mps 625 mmHg 88%
    10:00 -5°C° 0.7 mm 2 mps 626 mmHg 85%
    11:00 -5°C° 0.2 mm 2 mps 626 mmHg 83%
    12:00 -5°C° 0.2 mm 2 mps 626 mmHg 81%
    13:00 -4°C° 0.2 mm 2 mps 626 mmHg 78%
    14:00 -4°C° 0.2 mm 2 mps 626 mmHg 82%
    15:00 -5°C° 0.2 mm 2 mps 626 mmHg 85%
    16:00 -5°C° 0.2 mm 2 mps 626 mmHg 89%
    17:00 -5°C° 0.5 mm 2 mps 627 mmHg 90%
    18:00 -6°C° 0.5 mm 2 mps 628 mmHg 92%
    19:00 -6°C° 0.5 mm 2 mps 628 mmHg 94%
    20:00 -6°C° 0.4 mm 2 mps 629 mmHg 94%
    21:00 -6°C° 0.4 mm 2 mps 629 mmHg 94%
    22:00 -6°C° 0.4 mm 2 mps 630 mmHg 94%
    23:00 -6°C° 0.3 mm 2 mps 630 mmHg 92%

    Day after tomorrow, 30 January, Thursday

    Time Temperature Precipitation Wind Pressure Humidity
    00:00 -7°C° 0.3 mm 2 mps 630 mmHg 91%
    01:00 -7°C° 0.3 mm 2 mps 630 mmHg 89%
    02:00 -7°C° 0 mm 2 mps 629 mmHg 84%
    03:00 -8°C° 0 mm 2 mps 629 mmHg 79%
    04:00 -8°C° 0 mm 2 mps 629 mmHg 73%
    05:00 -8°C° 0 mm 2 mps 629 mmHg 69%
    06:00 -7°C° 0 mm 2 mps 629 mmHg 65%
    07:00 -6°C° 0 mm 2 mps 629 mmHg 61%
    08:00 -5°C° 0 mm 2 mps 630 mmHg 62%
    09:00 -3°C° 0 mm 2 mps 630 mmHg 63%
    10:00 -1°C° 0 mm 2 mps 631 mmHg 64%
    11:00 +1°C° 0 mm 2 mps 631 mmHg 66%
    12:00 +3°C° 0 mm 1 mps 631 mmHg 69%
    13:00 +4°C° 0 mm 1 mps 631 mmHg 71%
    14:00 +4°C° 0 mm 1 mps 630 mmHg 71%
    15:00 +3°C° 0 mm 1 mps 630 mmHg 71%
    16:00 +3°C° 0 mm 1 mps 629 mmHg 71%
    17:00 +1°C° 0 mm 2 mps 629 mmHg 68%
    18:00 -1°C° 0 mm 2 mps 629 mmHg 64%
    19:00 -2°C° 0 mm 2 mps 629 mmHg 61%
    20:00 -1°C° 0.3 mm 2 mps 629 mmHg 65%
    21:00 -1°C° 0.3 mm 2 mps 629 mmHg 69%
    22:00 -1°C° 0.3 mm 2 mps 629 mmHg 73%
    23:00 -1°C° 0.4 mm 2 mps 629 mmHg 78%

    31 January, Friday

    Time Temperature Precipitation Wind Pressure Humidity
    00:00 -1°C° 0.4 mm 2 mps 629 mmHg 84%
    01:00 -1°C° 0.4 mm 2 mps 629 mmHg 90%
    02:00 +1°C° 0.1 mm 2 mps 629 mmHg 91%
    03:00 +1°C° 0.1 mm 2 mps 629 mmHg 92%
    04:00 +1°C° 0.1 mm 2 mps 629 mmHg 93%
    05:00 +1°C° 0.1 mm 2 mps 630 mmHg 93%
    06:00 +1°C° 0.1 mm 2 mps 630 mmHg 94%
    07:00 +1°C° 0.1 mm 2 mps 630 mmHg 94%
    08:00 +2°C° 0 mm 2 mps 630 mmHg 94%
    09:00 +3°C° 0 mm 2 mps 631 mmHg 95%
    10:00 +3°C° 0 mm 2 mps 631 mmHg 95%
    11:00 +4°C° 0 mm 2 mps 631 mmHg 96%
    12:00 +4°C° 0 mm 2 mps 631 mmHg 97%
    13:00 +6°C° 0 mm 1 mps 631 mmHg 98%
    14:00 +5°C° 0 mm 1 mps 631 mmHg 97%
    15:00 +5°C° 0 mm 1 mps 631 mmHg 96%
    16:00 +4°C° 0 mm 1 mps 631 mmHg 95%
    17:00 +3°C° 0 mm 1 mps 631 mmHg 92%
    18:00 +2°C° 0 mm 1 mps 631 mmHg 89%
    19:00 +1°C° 0 mm 1 mps 630 mmHg 86%
    20:00 +1°C° 0 mm 1 mps 631 mmHg 86%
    21:00 +1°C° 0 mm 1 mps 631 mmHg 86%
    22:00 +1°C° 0 mm 1 mps 631 mmHg 85%
    23:00 +1°C° 0 mm 1 mps 631 mmHg 85%

    1 February, Saturday

    Time Temperature Precipitation Wind Pressure Humidity
    00:00 +1°C° 0 mm 1 mps 631 mmHg 85%
    01:00 +1°C° 0 mm 1 mps 631 mmHg 86%
    02:00 +1°C° 0 mm 1 mps 630 mmHg 86%
    03:00 +1°C° 0 mm 1 mps 630 mmHg 86%
    04:00 +1°C° 0 mm 1 mps 630 mmHg 86%
    05:00 +1°C° 0 mm 1 mps 630 mmHg 86%
    06:00 +1°C° 0 mm 1 mps 630 mmHg 85%
    07:00 +1°C° 0 mm 1 mps 630 mmHg 85%
    08:00 +2°C° 0 mm 1 mps 631 mmHg 86%
    09:00 +3°C° 0 mm 1 mps 631 mmHg 88%
    10:00 +4°C° 0 mm 1 mps 631 mmHg 89%
    11:00 +5°C° 0 mm 1 mps 631 mmHg 91%
    12:00 +5°C° 0 mm 1 mps 631 mmHg 94%
    13:00 +6°C° 0 mm 1 mps 631 mmHg 97%
    14:00 +6°C° 0.2 mm 1 mps 631 mmHg 96%
    15:00 +5°C° 0.2 mm 1 mps 631 mmHg 95%
    16:00 +5°C° 0.2 mm 1 mps 631 mmHg 94%
    17:00 +3°C° 0.7 mm 2 mps 631 mmHg 95%
    18:00 +3°C° 0.7 mm 2 mps 631 mmHg 95%
    19:00 +2°C° 0.7 mm 2 mps 632 mmHg 96%
    20:00 +2°C° 0.1 mm 2 mps 632 mmHg 95%
    21:00 +1°C° 0.1 mm 2 mps 632 mmHg 93%
    22:00 +1°C° 0.1 mm 2 mps 632 mmHg 91%
    23:00 +1°C° 0 mm 2 mps 632 mmHg 91%

    2 February, Sunday

    Time Temperature Precipitation Wind Pressure Humidity
    00:00 -1°C° 0 mm 2 mps 633 mmHg 90%
    01:00 -1°C° 0 mm 2 mps 633 mmHg 89%
    02:00 -1°C° 0 mm 2 mps 633 mmHg 89%
    03:00 -2°C° 0 mm 2 mps 633 mmHg 89%
    04:00 -2°C° 0 mm 3 mps 633 mmHg 88%
    05:00 -2°C° 0 mm 3 mps 633 mmHg 81%
    06:00 -2°C° 0 mm 3 mps 633 mmHg 73%
    07:00 -4°C° 0 mm 3 mps 633 mmHg 65%
    08:00 -1°C° 0 mm 2 mps 634 mmHg 61%
    09:00 +1°C° 0 mm 2 mps 635 mmHg 58%
    10:00 +3°C° 0 mm 2 mps 635 mmHg 54%
    11:00 +4°C° 0 mm 2 mps 635 mmHg 61%
    12:00 +5°C° 0 mm 2 mps 635 mmHg 68%
    13:00 +6°C° 0 mm 2 mps 635 mmHg 75%
    14:00 +6°C° 0 mm 2 mps 635 mmHg 69%
    15:00 +5°C° 0 mm 2 mps 635 mmHg 63%
    16:00 +5°C° 0 mm 2 mps 635 mmHg 57%
    17:00 +4°C° 0.1 mm 2 mps 635 mmHg 58%
    18:00 +4°C° 0.1 mm 2 mps 635 mmHg 58%
    19:00 +3°C° 0.1 mm 2 mps 635 mmHg 59%
    20:00 +3°C° 0.5 mm 2 mps 636 mmHg 70%
    21:00 +3°C° 0.5 mm 2 mps 636 mmHg 82%
    22:00 +2°C° 0.5 mm 3 mps 636 mmHg 94%
    23:00 +4°C° 0.2 mm 2 mps 636 mmHg 93%
    Show more